FENGYUN 1C DEB, 37902

Orbit data source: Space-Track

FENGYUN 1C DEB, 37902 is space debris in SSO originally from a launch on Mon, 10 May 1999 UTC launched from the Taiyaun Space Center, China (TSC). Fengyun 1C debris stems from the Chinese weather satellite Fengyun-1C, which was intentionally destroyed by a Chinese anti-satellite missile in 2007. This event dramatically increased the amount of space debris, with thousands of trackable fragments posing hazards to satellites and human spaceflight. The Fengyun 1C debris cloud has become a focal point in discussions about space sustainability and the need for international regulations to prevent the creation of new debris.

Loading next visibility...
Identifier
37902, 1999-025ENB
Orbit
SSO
Country
Flag of CNCN / PRC
Related business
Manufacturer
Unknown
Mission
Spacecraft
Bus & Motor
Unknown
Mass
Unknown
Launch date (UTC)
1999-05-10 (27 years ago)
Launch vehicle
Unknown
Launch site
Taiyaun Space Center, China (TSC)
Object type
Payload
Rocket body
Debris
Shape & HBR
Unknown shape, 0.1 m
Radar Cross Section
Medium (>0.1 m² and <1 m²)

Expand to show TLE details & history
Last TLE update: 5 days ago

TLE from 5 days ago
0 FENGYUN 1C DEB
1 37902U 99025ENB 26174.02605583  .00001151  00000-0  12844-2 0  9994
2 37902  98.6780  15.9652 0317598 170.0654 190.6967 13.53377045655771
Epoch: 2026-06-23T00:37Z
TLE epoch observation values (Epoch: 2026-06-23T00:37:31.223Z)
Latitude
-0.00001°
Longitude
95.38157°
Altitude
1,295.103 km
Speed
7.095 km/s
True Right ascension
01h 03m 51s
True Declination
0° 00' 00"
Sunlit
Object was in daylight at epoch
Visualization orbit readout
Latitude
Unknown
Longitude
Unknown
Altitude
Unknown
Speed
Unknown
Apparent Right ascension
Unknown
Apparent Declination
Unknown
Sunlit
N/A
Visualization observer readout
Local Sidereal Time
06:57:15
Azimuth
Unknown
Elevation
Unknown
Doppler factor
Unknown
Orbital elements
Apogee altitude
1,293.244 km
Perigee altitude
820.961 km
Semi-major axis
7,435.239 km
Eccentricity
0.03176
Inclination
98.678°
RAAN
15.9652°
Arg. of periapsis
170.0654°
True anomaly
190.0466°
Mean anomaly
190.6967°
Eccentric anomaly
190.36917°
Mean motion
3.38533 °/min
Orbital period
106.34 mins
BSTAR
0.0012844
Loading maneuver chart data...
Computing Atmospheric mass density...

Documentation

Showing up to 5 results
|